This is the latest recevied weather packets stored in our database for station/object KI2K. If no packets are shown the sender has not sent any weather packets the latest 10 day(s).
| Time | Temp. | Humidity | Pressure | Rain* | Wind** | Luminosity | Snow |
|---|---|---|---|---|---|---|---|
| 1778066304 | 6.67° C | 99% | 1011.3 hPa | 0 mm | - | 24 W/m² | - |
| 1778066002 | 6.67° C | 99% | 1011.3 hPa | 0 mm | - | 19 W/m² | - |
| 1778065699 | 6.11° C | 99% | 1010.8 hPa | 0 mm | - | 13 W/m² | - |
| 1778065396 | 6.11° C | 99% | 1010.8 hPa | 0 mm | - | 9 W/m² | - |
| 1778065093 | 6.67° C | 99% | 1010.5 hPa | 0 mm | - | 6 W/m² | - |
| 1778064790 | 6.67° C | 99% | 1010.5 hPa | 0 mm | - | 4 W/m² | - |
| 1778064487 | 6.67° C | 99% | 1010.3 hPa | 0 mm | - | 3 W/m² | - |
| 1778064185 | 6.67° C | 99% | 1010.7 hPa | 0 mm | - | 1 W/m² | - |
| 1778063882 | 6.67° C | 99% | 1010.3 hPa | 0 mm | - | 0 W/m² | - |
| 1778063579 | 6.67° C | 99% | 1010 hPa | 0 mm | - | 0 W/m² | - |
| 1778063277 | 7.22° C | 99% | 1010 hPa | 0 mm | - | 0 W/m² | - |
| 1778062975 | 7.22° C | 99% | 1009.8 hPa | 0 mm | - | 0 W/m² | - |
| 1778062672 | 7.22° C | 99% | 1009.5 hPa | 0 mm | - | 0 W/m² | - |
| 1778062368 | 7.22° C | 99% | 1009.6 hPa | 0 mm | - | 0 W/m² | - |
| 1778062066 | 7.78° C | 99% | 1009.6 hPa | 0 mm | - | 0 W/m² | - |
| 1778061764 | 7.78° C | 99% | 1009.7 hPa | 0 mm | - | 0 W/m² | - |
| 1778061462 | 7.78° C | 99% | 1009.6 hPa | 0 mm | - | 0 W/m² | - |
| 1778061159 | 7.78° C | 99% | 1009.9 hPa | 0 mm | - | 0 W/m² | - |
| 1778060855 | 7.78° C | 99% | 1010.6 hPa | 0 mm | - | 0 W/m² | - |
| 1778060554 | 7.78° C | 99% | 1010.3 hPa | 0 mm | - | 0 W/m² | - |
| 1778060252 | 7.78° C | 99% | 1010.4 hPa | 0 mm | - | 0 W/m² | - |
| 1778059949 | 7.78° C | 99% | 1010.2 hPa | 0 mm | - | 0 W/m² | - |
| 1778059646 | 7.78° C | 99% | 1009.9 hPa | 0 mm | - | 0 W/m² | - |
| 1778059344 | 7.78° C | 99% | 1009.3 hPa | 0 mm | - | 0 W/m² | - |
| 1778059041 | 7.78° C | 99% | 1009.3 hPa | 0 mm | - | 0 W/m² | - |
* Rain latest hour (hover to see other rain measurements)
** Current wind speed in m/s (hover to see current wind gust speed)